Location: Czekanka
(50.4925°N, 19.2643°E)
Time: 06:58:18
(UTC+00:00)

Cosmos 2263 Rocket - Pass Details

Date: 28 September 2024
Orbit: 821 x 849 km, 71.0° (Epoch: 12 October)

Event Time Altitude Azimuth Distance (km) Brightness Sun altitude
Exits shadow 03:36:00 12° 241° (WSW) 2,293 3.9 -10.8°
Maximum altitude 03:40:51 42° 310° (NW) 1,200 2.7 -10.0°
Drops below altitude 10° 03:46:15 10° 20° (NNE) 2,482 5.0 -9.2°
Sets 03:48:52 0° 28° (NNE) 3,423 5.9 -8.8°
